OBJECT F, 44315

Orbit data source: Space-Track

You're viewing an Uncataloged Satellite

Recently launched and/or uncataloged satellites may have evolving metadata. Metadata may include but not limited to: Owner, Maufacturer, Bus, Motor, and Mission.

OBJECT F, 44315 is a Chinese satellite in LEO that was launched on Wed, 05 Jun 2019 UTC via a CHANG ZHENG 11 launch vehicle from the Yellow Sea Launch Area, China (YSLA). Unknown objects in Earth's orbit typically refer to objects detected orbiting the Earth but have not yet been identified or cataloged. These objects could be anything from previously untracked satellites, spent rocket stages, debris from satellite collisions, or even natural meteoroids temporarily captured by Earth's gravity.

Loading next visibility...
Identifier
44315, 2019-032F
Orbit
LEO
Country
Flag of CNCN / PRC
Related business
None
Manufacturer
Unknown
Mission
Commercial Imaging
Bus & Motor
Unknown
Mass
Unknown
Launch date (UTC)
2019-06-05 (6 years ago)
Launch vehicle
CHANG ZHENG 11
Launch site
Yellow Sea Launch Area, China (YSLA)
Object type
Unknown
Shape & HBR
Box + 2 Pan, 0.8 m
Radar Cross Section
2.000 m², Medium (>0.1 m² and < 1m²)

Expand to show TLE details & history
Last TLE update: 22 hours ago

TLE from 22 hours ago
0 OBJECT F
1 44315U 19032F   25291.08199913  .00089086  00000-0  16652-2 0  9994
2 44315  44.9824 175.1539 0008451 118.7110 241.4631 15.47767594351597
Epoch: 2025-10-18T01:58Z
TLE epoch observation values (Epoch: 2025-10-18T01:58:04.724Z)
Latitude
-0.00002°
Longitude
118.81607°
Altitude
426.004 km
Speed
7.656 km/s
True Right ascension
11h 40m 36s
True Declination
0° 00' 00"
Sunlit
Object was in daylight at epoch
Visualization orbit readout
Latitude
Unknown
Longitude
Unknown
Altitude
Unknown
Speed
Unknown
Apparent Right ascension
Unknown
Apparent Declination
Unknown
Sunlit
N/A
Visualization observer readout
Local Sidereal Time
18:34:07
Azimuth
Unknown
Elevation
Unknown
Doppler factor
Unknown
Orbital elements
Apogee altitude
430.634 km
Perigee altitude
419.135 km
Semi-major axis
6,803.021 km
Eccentricity
0.00085
Inclination
44.9824°
RAAN
175.1539°
Arg. of periapsis
118.711°
True anomaly
241.37807°
Mean anomaly
241.4631°
Eccentric anomaly
241.42058°
Mean motion
3.86804 °/min
Orbital period
93.07 mins
BSTAR
0.0016652
Loading maneuver chart data...
Computing Atmospheric mass density...
Loading historical data...
Loading historical data...
Loading historical data...
Loading historical data...
Loading historical data...
Loading historical data...
Loading historical data...

Documentation

Showing up to 5 results
|